DECAYED

CZ-3B R/B, 44867 (Decayed)

Orbit data source: Space-Track

CZ-3B R/B, 44867 was space debris in LEO originally from a launch on Mon, 16 Dec 2019 UTC launched from the Xichang Space Center, China (XSC). Debris objects in space refer to the collection of defunct objects orbiting the Earth. Examples of debris include non-operational satellites, rocket bodies, and fragments generated from explosions, collisions, or faulty payload assembly.

Not visible in the next 10 days
Identifier
44867, 2019-090D
Orbit
Decayed
Country
Flag of CNCN / PRC
Related business
Manufacturer
CALT
Mission
Decayed spacecraft
Bus & Motor
CZ-3A STAGE 3, Unknown motor
Mass
~2,800 kg wet, ~2,800 kg dry
Launch date (UTC)
2019-12-16 (6 years ago)
Launch vehicle
Unknown
Launch site
Xichang Space Center, China (XSC)
Object type
Payload
Rocket body
Debris
Shape & HBR
Cyl + 1 Nozzle, 6.2 m
Radar Cross Section
32.704 m², Large (>1 m²)

Expand to show TLE details & history
Last TLE update: 3 months ago

TLE from 3 months ago
0 CZ-3B R/B
1 44867U 19090D   25312.32309571  .63767191  15342-4  65613-3 0  9994
2 44867  54.6677 340.7061 0245866 354.1633   5.6564 16.03502889112960
Epoch: 2025-11-08T07:45Z
TLE epoch observation values (Epoch: 2025-11-08T07:45:15.469Z)
Latitude
0.00001°
Longitude
176.63729°
Altitude
103.332 km
Speed
7.941 km/s
True Right ascension
22h 42m 49s
True Declination
0° 00' 00"
Sunlit
Object was in full shadow at epoch
Visualization orbit readout
Latitude
Unknown
Longitude
Unknown
Altitude
Unknown
Speed
Unknown
Apparent Right ascension
Unknown
Apparent Declination
Unknown
Sunlit
N/A
Visualization observer readout
Local Sidereal Time
17:42:35
Azimuth
Unknown
Elevation
Unknown
Doppler factor
Unknown
Orbital elements
Apogee altitude
428.068 km
Perigee altitude
101.416 km
Semi-major axis
6,642.879 km
Eccentricity
0.02459
Inclination
54.6677°
RAAN
340.7061°
Arg. of periapsis
354.1633°
True anomaly
5.94284°
Mean anomaly
5.6564°
Eccentric anomaly
5.79873°
Mean motion
4.00875 °/min
Orbital period
89.8 mins
BSTAR
0.00065613
Loading maneuver chart data...
Computing Atmospheric mass density...
Loading historical data...
Loading historical data...
Loading historical data...
Loading historical data...
Loading historical data...
Loading historical data...
Loading historical data...
Other satellites on launch #90 in the year 2019 (2019-12-16 UTC)

Documentation

Showing up to 5 results
|